Regional Weather Roundup
Issued by NWS

Home | Current Version | Previous Version | Graphics & Text | Print | Product List | Glossary Off
Versions: 1 2 3 4 5 6 7 8 9 10 11 12 13 14 15 16 17 18 19 20 21 22 23 24 25 26 27 28 29 30 31 32 33 34 35 36 37 38 39 40 41 42 43 44 45 46 47 48 49 50

000
ASUS43 KLSX 290259
RWRMO

WEATHER SUMMARY FOR MISSOURI
NATIONAL WEATHER SERVICE SPRINGFIELD MO
1000 PM CDT MON JUL 28 2014

NOTE: "FAIR" INDICATES FEW OR NO CLOUDS BELOW 12,000 FEET WITH NO
       SIGNIFICANT WEATHER AND/OR OBSTRUCTIONS TO VISIBILITY.
       CURRENT SKY AND/OR WEATHER CONDITIONS ARE NOT AVAILABLE FOR
       CHILLICOTHE AND FARMINGTON.

MOZ001>031-035>038-043-044-053-054-290400-
...NORTHERN AND WESTERN MISSOURI...

CITY           SKY/WX    TMP DP  RH WIND       PRES   REMARKS
KANSAS CTY INT PTCLDY    68  60  75 NW6       30.17R
KANSAS C DTWN  CLEAR     74  60  61 CALM      30.16R
LEE`S SUMMIT   CLEAR     69  58  67 N3        30.17R
ST JOSEPH      CLEAR     64  59  83 CALM      30.17R
CHILLICOTHE      N/A     67  60  78 CALM      30.16S
KIRKSVILLE     MOCLDY    63  58  83 CALM      30.17R

$$
MOZ066>068-077>081-088>096-101>105-290400-
...SOUTHWEST MISSOURI...

CITY           SKY/WX    TMP DP  RH WIND       PRES   REMARKS
SPRINGFIELD    CLEAR     69  57  65 N5        30.15R
JOPLIN         CLEAR     73  58  59 NE3       30.15R

$$
MOZ032>034-039>042-045>050-055>058-069>072-290400-
...CENTRAL MISSOURI...

CITY           SKY/WX    TMP DP  RH WIND       PRES   REMARKS
COLUMBIA       CLEAR     63  55  75 N7        30.16R
JEFFERSON CITY CLEAR     69  55  60 N3        30.14R
ROLLA          CLEAR     63  52  67 CALM      30.14R
SEDALIA        CLEAR     67  58  72 CALM      30.16R
OSAGE BEACH    CLEAR     66  55  68 CALM      30.15R

$$
MOZ051-052-059>065-290400-
...EAST CENTRAL MISSOURI...

CITY           SKY/WX    TMP DP  RH WIND       PRES   REMARKS
ST LOUIS INTL  NOT AVBL
SPIRIT OF STL  CLEAR     62  54  74 CALM      30.12R
ST CHARLES     CLEAR     64  55  72 N5        30.12R

$$
MOZ072>076-082>087-097>100-106>115-290400-
...SOUTH CENTRAL AND SOUTHEAST MISSOURI...

CITY           SKY/WX    TMP DP  RH WIND       PRES   REMARKS
CAPE GIRARDEAU CLEAR     70  58  65 N9        30.09R
FARMINGTON     CLEAR     66  54  63 N5        30.15R
POPLAR BLUFF   PTCLDY    72  59  63 NE8       30.08R
WEST PLAINS    CLEAR     69  56  62 N5        30.14R

$$


USA.gov is the U.S. government's official web portal to all federal, state and local government web resources and services.